Regional Weather Roundup
Issued by NWS

Home | Current Version | Previous Version | Text Only | Print | Product List | Glossary Off
Versions: 1 2 3 4 5 6 7 8 9 10 11 12 13 14 15 16 17 18 19 20 21 22 23 24 25 26 27 28 29 30 31 32 33 34 35 36 37 38 39 40 41 42 43 44 45 46 47 48 49 50

000
ASUS43 KLSX 030007
RWRMO

WEATHER SUMMARY FOR MISSOURI
NATIONAL WEATHER SERVICE SPRINGFIELD MO
700 PM CDT SUN AUG 02 2015

NOTE: "FAIR" INDICATES FEW OR NO CLOUDS BELOW 12,000 FEET WITH NO
       SIGNIFICANT WEATHER AND/OR OBSTRUCTIONS TO VISIBILITY.
       CURRENT SKY AND/OR WEATHER CONDITIONS ARE NOT AVAILABLE FOR
       CHILLICOTHE AND FARMINGTON.

MOZ001>031-035>038-043-044-053-054-030100-
...NORTHERN AND WESTERN MISSOURI...

CITY           SKY/WX    TMP DP  RH WIND       PRES   REMARKS
KANSAS CTY INT PTSUNNY   86  74  67 SW7       29.82F HX  94
6HR MIN TEMP:  86; 6HR MAX TEMP:  90;

KANSAS C DTWN  SUNNY     91  68  46 W9        29.80F HX  95
6HR MIN TEMP:  90; 6HR MAX TEMP:  93;

LEE`S SUMMIT   SUNNY     89  66  46 SW7       29.83F HX  91
6HR MIN TEMP:  89; 6HR MAX TEMP:  93;

ST JOSEPH      MOSUNNY   87  74  64 SW9       29.79F HX  95
6HR MIN TEMP:  87; 6HR MAX TEMP:  90;

CHILLICOTHE      N/A     89  73  59 VRB5      29.82F HX  97
6HR MIN TEMP:  89; 6HR MAX TEMP:  91;

KIRKSVILLE     SUNNY     85  70  60 SW8       29.81F
6HR MIN TEMP:  85; 6HR MAX TEMP:  90;


$$
MOZ066>068-077>081-088>096-101>105-030100-
...SOUTHWEST MISSOURI...

CITY           SKY/WX    TMP DP  RH WIND       PRES   REMARKS
SPRINGFIELD    SUNNY     87  65  47 SW9       29.91F
6HR MIN TEMP:  87; 6HR MAX TEMP:  92;

JOPLIN         SUNNY     89  61  38 SW12      29.90F
6HR MIN TEMP:  89; 6HR MAX TEMP:  95;


$$
MOZ032>034-039>042-045>050-055>058-069>072-030100-
...CENTRAL MISSOURI...

CITY           SKY/WX    TMP DP  RH WIND       PRES   REMARKS
COLUMBIA       SUNNY     86  70  58 S9        29.84F HX  90
6HR MIN TEMP:  86; 6HR MAX TEMP:  91;

JEFFERSON CITY SUNNY     90  65  43 SW7       29.83F HX  92
6HR MIN TEMP:  88; 6HR MAX TEMP:  92;

ROLLA          SUNNY     87  66  49 W6        29.87F
6HR MIN TEMP:  87; 6HR MAX TEMP:  92;

SEDALIA        SUNNY     89  68  49 SW9       29.85F HX  93
6HR MIN TEMP:  89; 6HR MAX TEMP:  91;

WHITEMAN AFB   SUNNY     90  67  47 SW12      29.82F HX  93
WARRENSBURG    SUNNY     90  64  43 S8        29.83F HX  91
OSAGE BEACH    SUNNY     90  66  45 SW5       29.87F HX  92

$$
MOZ051-052-059>065-030100-
...EAST CENTRAL MISSOURI...

CITY           SKY/WX    TMP DP  RH WIND       PRES   REMARKS
ST LOUIS INTL  MOSUNNY   92  66  42 SW13G22   29.84F HX  94
6HR MIN TEMP:  92; 6HR MAX TEMP:  96;

SPIRIT OF STL  MOSUNNY   89  72  56 S5        29.82F HX  96
6HR MIN TEMP:  89; 6HR MAX TEMP:  93;

ST CHARLES     SUNNY     91  66  43 W9        29.82F HX  93
6HR MIN TEMP:  91; 6HR MAX TEMP:  95;


$$
MOZ072>076-082>087-097>100-106>115-030100-
...SOUTH CENTRAL AND SOUTHEAST MISSOURI...

CITY           SKY/WX    TMP DP  RH WIND       PRES   REMARKS
CAPE GIRARDEAU SUNNY     86  72  62 S6        29.87F HX  92
6HR MIN TEMP:  86; 6HR MAX TEMP:  90;

FARMINGTON     SUNNY     88  70  55 SW6       29.92F HX  92
6HR MIN TEMP:  88; 6HR MAX TEMP:  91;

POPLAR BLUFF   SUNNY     88  72  58 S6        29.86F HX  94
6HR MIN TEMP:  88; 6HR MAX TEMP:  91;

WEST PLAINS    SUNNY     86  67  52 SW6       29.93F
6HR MIN TEMP:  86; 6HR MAX TEMP:  91;


$$


USA.gov is the U.S. government's official web portal to all federal, state and local government web resources and services.